Location: Unspecified
(0.0000°N, 0.0000°E)
Time: 01:18:30
(UTC+00:00)

Tiros 8 - Pass Details

Date: 18 May 2026
Orbit: 640 x 662 km, 58.5° (Epoch: 10 June)

Event Time Altitude Azimuth Distance (km) Brightness Sun altitude
Rises 18:35:31 0° 231° (SW) 2,977 12.5 -9.2°
Reaches altitude 10° 18:38:11 10° 244° (WSW) 2,066 11.9 -9.8°
Maximum altitude 18:42:00 24° 298° (WNW) 1,346 11.3 -10.7°
Drops below altitude 10° 18:45:50 10° 353° (N) 2,065 11.6 -11.6°
Sets 18:48:31 0° 7° (N) 2,975 12.2 -12.2°
